Weather History for Stevens Point, WI

Change the Weather History Date:

Monday, September 23, 2013

  Actual Average Record
Temperature  
Mean Temperature 50 °F -  
Max Temperature 64 °F 62 °F 82 °F (1958)
Min Temperature 36 °F 42 °F 27 °F (1974)
Degree Days  
Heating Degree Days 15    
Moisture  
Dew Point 43 °F    
Average Humidity 79    
Maximum Humidity 98    
Minimum Humidity 55    
Precipitation  
Precipitation 0.00 in - - ()
Sea Level Pressure  
Sea Level Pressure 30.08 in    
Wind  
Wind Speed 5 mph (ESE)    
Max Wind Speed 12 mph    
Max Gust Speed 18 mph    
Visibility 10 miles    
Events      
Averages and records for this station are not official NWS values.
T = Trace of Precipitation, MM = Missing Value Source: NWS Daily Summary

Daily Weather History Graph

Daily Weather History Graph

Search for Another Location

Airport:

Trip Planner

Search our weather history database for the weather conditions in past years. The results will help you decide how hot, cold, wet, or windy it might be!

Date:

Astronomy

Sep. 23, 2013 Rise Set
Actual Time 6:46 AM CDT 6:53 PM CDT
Civil Twilight 6:17 AM CDT 7:22 PM CDT
Nautical Twilight 5:43 AM CDT 7:56 PM CDT
Astronomical Twilight 5:08 AM CDT 8:31 PM CDT
Moon 9:13 PM CDT (9/23) 11:16 AM CDT (9/23)
Length of Visible Light 13h 04m
Length of Day
12h 06m
Waning Gibbous, 81% of the Moon is Illuminated
Sep 23
Waning Gibbous
Sep 26
Last Quarter
Oct 4
New
Oct 11
First Quarter
Oct 18
Full

Hourly Weather History & Observations

Time (CDT) Temp. Windchill Dew Point Humidity Pressure Visibility Wind Dir Wind Speed Gust Speed Precip Events Conditions
12:15 AM 42.1 °F 38.4 °F 39.6 °F 91% 30.08 in 10.0 mi ESE 5.8 mph - N/A   Clear
12:35 AM 41.5 °F 39.6 °F 39.4 °F 92% 30.08 in 10.0 mi ESE 3.5 mph - N/A   Clear
12:55 AM 41.2 °F 39.2 °F 39.2 °F 93% 30.08 in 10.0 mi ESE 3.5 mph - N/A   Clear
1:15 AM 40.6 °F 38.6 °F 39.2 °F 95% 30.08 in 10.0 mi ESE 3.5 mph - N/A   Clear
1:35 AM 40.3 °F 38.2 °F 38.8 °F 95% 30.08 in 10.0 mi ESE 3.5 mph - N/A   Clear
1:55 AM 40.1 °F 38.0 °F 38.7 °F 95% 30.08 in 10.0 mi East 3.5 mph - N/A   Clear
2:15 AM 40.5 °F - 38.8 °F 94% 30.08 in 10.0 mi Calm Calm - N/A   Clear
2:35 AM 40.3 °F 38.2 °F 38.7 °F 94% 30.08 in 10.0 mi East 3.5 mph - N/A   Clear
2:55 AM 40.1 °F - 38.5 °F 94% 30.08 in 10.0 mi Calm Calm - N/A   Clear
3:15 AM 39.2 °F - 37.8 °F 95% 30.09 in 10.0 mi Calm Calm - N/A   Clear
3:35 AM 39.2 °F 37.0 °F 37.9 °F 95% 30.09 in 10.0 mi East 3.5 mph - N/A   Clear
3:55 AM 38.8 °F - 37.6 °F 95% 30.09 in 10.0 mi Calm Calm - N/A   Clear
4:15 AM 38.5 °F - 37.4 °F 96% 30.09 in 10.0 mi Calm Calm - N/A   Clear
4:35 AM 38.5 °F - 37.2 °F 95% 30.10 in 10.0 mi Calm Calm - N/A   Clear
4:55 AM 37.4 °F - 36.5 °F 97% 30.10 in 10.0 mi Calm Calm - N/A   Clear
5:15 AM 37.2 °F - 36.3 °F 97% 30.09 in 10.0 mi Calm Calm - N/A   Clear
5:35 AM 37.6 °F - 36.9 °F 97% 30.10 in 10.0 mi Calm Calm - N/A   Clear
5:55 AM 37.6 °F - 36.9 °F 97% 30.10 in 10.0 mi Calm Calm - N/A   Clear
6:15 AM 37.4 °F - 36.7 °F 97% 30.10 in 10.0 mi Calm Calm - N/A   Clear
6:35 AM 37.2 °F - 36.3 °F 97% 30.11 in 10.0 mi Calm Calm - N/A   Clear
6:55 AM 36.5 °F - 35.8 °F 97% 30.12 in 10.0 mi Calm Calm - N/A   Clear
7:15 AM 36.7 °F 32.9 °F 36.0 °F 97% 30.12 in 10.0 mi East 4.6 mph - N/A   Clear
7:35 AM 38.5 °F - 37.9 °F 98% 30.12 in 7.0 mi Calm Calm - N/A   Clear
7:55 AM 41.4 °F - 40.3 °F 96% 30.12 in 10.0 mi Calm Calm - N/A   Clear
8:15 AM 44.4 °F 42.9 °F 41.9 °F 91% 30.12 in 10.0 mi SE 3.5 mph - N/A   Clear
8:35 AM 46.4 °F 42.9 °F 42.8 °F 87% 30.12 in 10.0 mi SE 6.9 mph - N/A   Clear
8:55 AM 47.7 °F - 43.0 °F 84% 30.13 in 10.0 mi SE 6.9 mph - N/A   Clear
9:15 AM 49.8 °F - 43.9 °F 80% 30.13 in 10.0 mi SE 5.8 mph - N/A   Clear
9:35 AM 51.4 °F - 44.1 °F 76% 30.13 in 10.0 mi SE 10.4 mph - N/A   Clear
9:55 AM 52.5 °F - 44.6 °F 74% 30.14 in 10.0 mi SE 10.4 mph - N/A   Clear
10:15 AM 53.6 °F - 44.8 °F 72% 30.14 in 10.0 mi SE 9.2 mph - N/A   Clear
10:35 AM 54.7 °F - 45.0 °F 70% 30.13 in 10.0 mi SSE 10.4 mph - N/A   Clear
10:55 AM 55.9 °F - 45.7 °F 68% 30.13 in 10.0 mi SSE 10.4 mph - N/A   Clear
11:15 AM 56.8 °F - 45.7 °F 66% 30.13 in 10.0 mi SSE 8.1 mph - N/A   Clear
11:35 AM 58.1 °F - 46.2 °F 65% 30.12 in 10.0 mi ESE 6.9 mph - N/A   Clear
11:55 AM 59.2 °F - 46.4 °F 63% 30.12 in 10.0 mi SE 8.1 mph 16.1 mph N/A   Clear
12:15 PM 59.9 °F - 46.2 °F 61% 30.11 in 10.0 mi East 9.2 mph - N/A   Clear
12:35 PM 61.2 °F - 47.1 °F 60% 30.10 in 10.0 mi ESE 11.5 mph 18.4 mph N/A   Clear
1:15 PM 61.3 °F - 47.1 °F 60% 30.09 in 10.0 mi SSE 8.1 mph - N/A   Clear
1:35 PM 62.8 °F - 47.8 °F 58% 30.08 in 10.0 mi ESE 10.4 mph - N/A   Clear
1:55 PM 61.7 °F - 47.1 °F 59% 30.08 in 10.0 mi SE 10.4 mph - N/A   Clear
2:15 PM 62.6 °F - 47.5 °F 58% 30.07 in 10.0 mi ESE 9.2 mph - N/A   Clear
2:35 PM 63.1 °F - 48.2 °F 58% 30.07 in 10.0 mi SE 4.6 mph - N/A   Scattered Clouds
2:55 PM 62.6 °F - 47.7 °F 58% 30.06 in 10.0 mi SE 10.4 mph - N/A   Scattered Clouds
3:15 PM 63.5 °F - 47.8 °F 57% 30.05 in 10.0 mi SE 10.4 mph - N/A   Clear
3:35 PM 64.4 °F - 48.2 °F 56% 30.05 in 10.0 mi ESE 8.1 mph - N/A   Clear
3:55 PM 63.9 °F - 47.8 °F 56% 30.05 in 10.0 mi SE 6.9 mph 17.3 mph N/A   Clear
4:15 PM 63.5 °F - 47.5 °F 56% 30.05 in 10.0 mi East 9.2 mph - N/A   Clear
4:35 PM 63.9 °F - 47.3 °F 55% 30.05 in 10.0 mi ESE 10.4 mph - N/A   Clear
4:55 PM 63.7 °F - 47.8 °F 56% 30.05 in 10.0 mi ESE 8.1 mph - N/A   Clear
5:15 PM 62.4 °F - 47.5 °F 58% 30.05 in 10.0 mi East 9.2 mph - N/A   Clear
5:35 PM 61.7 °F - 47.3 °F 59% 30.05 in 10.0 mi ESE 9.2 mph - N/A   Clear
5:55 PM 61.2 °F - 47.1 °F 60% 30.05 in 10.0 mi ESE 9.2 mph - N/A   Clear
6:15 PM 60.1 °F - 47.3 °F 63% 30.05 in 10.0 mi ESE 6.9 mph - N/A   Clear
6:35 PM 58.8 °F - 46.9 °F 65% 30.05 in 10.0 mi East 5.8 mph - N/A   Clear
6:55 PM 56.5 °F - 46.6 °F 69% 30.05 in 10.0 mi East 5.8 mph - N/A   Clear
7:15 PM 54.9 °F - 46.2 °F 73% 30.05 in 10.0 mi ESE 4.6 mph - N/A   Clear
7:35 PM 53.2 °F - 45.9 °F 76% 30.05 in 10.0 mi East 4.6 mph - N/A   Clear
7:55 PM 51.6 °F - 45.5 °F 80% 30.06 in 10.0 mi East 4.6 mph - N/A   Clear
8:15 PM 51.1 °F - 45.7 °F 82% 30.06 in 10.0 mi ESE 5.8 mph - N/A   Clear
8:35 PM 50.9 °F - 46.0 °F 83% 30.06 in 10.0 mi ESE 8.1 mph - N/A   Clear
8:55 PM 51.8 °F - 46.6 °F 82% 30.06 in 10.0 mi ESE 8.1 mph - N/A   Clear
9:15 PM 51.4 °F - 46.6 °F 83% 30.06 in 10.0 mi ESE 8.1 mph - N/A   Clear
9:35 PM 50.5 °F - 45.9 °F 84% 30.07 in 10.0 mi SE 5.8 mph - N/A   Clear
9:55 PM 50.2 °F - 45.7 °F 85% 30.07 in 10.0 mi SE 8.1 mph - N/A   Clear
10:15 PM 49.3 °F - 45.5 °F 87% 30.07 in 10.0 mi SE 4.6 mph - N/A   Clear
10:35 PM 48.6 °F - 44.8 °F 87% 30.07 in 10.0 mi ESE 4.6 mph - N/A   Clear
10:55 PM 48.0 °F - 44.6 °F 88% 30.07 in 10.0 mi SE 4.6 mph - N/A   Clear
11:15 PM 47.3 °F - 44.2 °F 89% 30.07 in 10.0 mi ESE 4.6 mph - N/A   Clear
11:35 PM 46.4 °F 44.3 °F 44.1 °F 92% 30.07 in 10.0 mi ESE 4.6 mph - N/A   Clear
11:55 PM 46.4 °F 44.3 °F 43.9 °F 91% 30.07 in 10.0 mi ESE 4.6 mph - N/A   Clear